KOREASAT 6

Last updated on Sat Oct 25 2025 00:02:49 GMT+0000 (Coordinated Universal Time)

1 37265U 10070B 25297.48764884 -.00000099 00000+0 00000+0 0 9992 2 37265 0.0190 255.7408 0002390 348.2371 124.6061 1.00271248 54406
UTC large
Height (km)
Speed (km/s)
/
Latitude / Longitude
Inclination (degrees)
Orbital Period (minutes)
Azimuth
Elevation
Range (km)
Doppler Factor

Next 0 passes for location: London (51.5072 / 0.1276)

Sorry there are no passes over London.